SCP
0 -0 -0 -0 0 0 0 0 -0 0 0 0 -0 -0 -0 -0 -0 -0 -0 -0 -0 -0 -0 -0 -0 -0 -0 -0 -0 -0 -0 0 0 0 0 0 0 0 0 0 0 0 0
-0 -0 0 -0 0 0 0 0 0 0 0 -0 -0 -0 -0 -0 0 0 -0 -0 -0 -0 -0 -0 -0 -0 -0 -0 0 0 0 0 0 0 -0 0 0 0 0 0 0 0 0
-0 -0 -0 -0 0 0 -0 -0 0 -0 -0 -0 -0 -0 -0 -0 -0 -0 -0 -0 -0 -0 -0 0 0 -0 0 0 0 0 0 0 0 -0 -0 -0 0 0 0 0 0 0 0
-0 -0 -0 -0 0 0 0 -0 -0 -0 -0 -0 -0 -0 -0 -0 -0 -0 0 0 0 -0 0 0 -0 -0 -0 -0 -0 -0 0 0 -0 -0 -0 0 -0 0 0 0 0 0 0
0 0 -0 -0 0 0 -0 -0 -0 -0 -0 -0 0 -0 -0 -0 -0 0 -0 -0 -0 0 0 0 0 0 0 0 0 -0 -0 -0 -0 -0 0 0 0 0 0 0 0 0 0
0 0 0 -0 0 0 -0 -0 -0 -0 -0 0 0 0 0 0 -0 -0 -0 -0 -0 0 0 0 0 0 0 -0 -0 -0 -0 -0 -0 -0 0 0 0 0 0 0 0 0 0
0 0 0 0 -0 -0 0 0 0 -0 0 0 0 0 -0 -0 -0 0 0 0 0 0 0 0 0 0 0 0 0 -0 -0 -0 -0 -0 0 0 0 0 0 0 0 0 0
0 0 0 0 -0 -0 0 -0 0 0 0 0 0 -0 -0 -0 -0 0 0 0 0 0 0 0 0 0 0 0 0 -0 -0 0 -0 -0 0 0 0 0 0 0 0 0 0
0 0 0 0 0 0 0 0 0 0 -0 -0 -0 -0 -0 0 0 0 -0 -0 -0 0 0 0 0 0 0 0 0 0 0 0 0 0 0 0 0 0 0 0 0 0 0
0 0 0 0 -0 -0 -0 -0 -0 -0 -0 -0 -0 0 -0 -0 -0 -0 -0 0 -0 -0 -0 -0 0 0 0 0 0 0 0 -0 0 0 0 0 0 0 0 0 0 0 0
0 0 0 -0 -0 -0 -0 -0 -0 -0 -0 -0 -0 -0 -0 -0 -0 0 0 0 -0 -0 -0 0 0 0 0 0 0 0 0 0 0 0 0 0 0 0 0 0 0 0 0
0 0 0 0 0 -0 -0 -0 -0 -0 -0 -0 -0 -0 -0 -0 -0 -0 0 0 0 0 0 0 0 0 0 0 0 0 0 0 0 0 0 0 0 0 0 0 0 0 0
0 0 0 -0 -0 -0 -0 -0 -0 -0 -0 -0 -0 -0 -0 -0 -0 0 0 0 0 0 0 0 0 0 0 0 0 0 0 0 0 0 0 0 0 0 0 0 0 0 0
0 0 0 -0 -0 -0 -0 -0 -0 -0 -0 -0 -0 -0 -0 0 0 0 0 0 0 0 0 0 0 0 0 0 0 0 0 0 0 0 0 0 0 0 0 0 0 0 0
0 0 -0 -0 -0 -0 -0 -0 -0 -0 -0 -0 -0 0 0 0 0 0 0 0 0 0 0 0 0 0 0 0 0 0 0 0 0 0 0 0 0 0 0 0 0 0 0
0 0 0 0 -0 -0 -0 0 0 0 0 0 0 0 0 0 0 0 0 0 0 0 0 0 0 0 0 0 0 0 0 0 0 0 0 0 0 0 0 0 0 0 0
0 0 0 0 0 0 0 0 0 0 0 0 0 0 0 0 0 0 0 0 0 0 0 0 0 0 0 0 0 0 0 0 0 0 0 0 0 0 0 0 0 0 0
0 0 0 0 0 0 0 0 0 0 0 0 0 0 0 0 0 0 0 0 0 0 0 0 0 0 0 0 0 0 0 0 0 0 0 0 0 0 0 0 0 0 0
0 0 0 0 0 0 0 0 0 0 0 0 0 0 0 0 0 0 0 0 0 0 0 0 0 0 0 0 0 0 0 0 0 0 0 0 0 0 0 0 0 0 0
0 0 0 0 0 0 0 0 0 0 0 0 0 0 0 0 0 0 0 0 0 0 0 0 0 0 0 0 0 0 0 0 0 0 0 0 0 0 0 0 0 0 0
0 0 0 0 0 0 0 0 0 0 0 0 0 0 0 0 0 0 0 0 0 0 0 0 0 0 0 0 0 0 0 0 0 0 0 0 0 0 0 0 0 0 0
0 0 0 0 0 0 0 0 0 0 0 0 0 0 0 0 0 0 0 0 0 0 0 0 0 0 0 0 0 0 0 0 0 0 0 0 0 0 0 0 0 0 0
0 0 0 0 0 0 0 0 0 0 0 0 0 0 0 0 0 0 0 0 0 0 0 0 0 0 0 0 0 0 0 0 0 0 0 0 0 0 0 0 0 0 0
0 0 0 0 0 0 0 0 0 0 0 0 0 0 0 0 0 0 0 0 0 0 0 0 0 0 0 0 0 0 0 0 0 0 0 0 0 0 0 0 0 0 0
0 0 0 0 0 0 0 0 0 0 0 0 0 0 0 0 0 0 0 0 0 0 0 0 0 0 0 0 0 0 0 0 0 0 0 0 0 0 0 0 0 0 0
0 0 0 0 0 0 0 0 0 0 0 0 0 0 0 0 0 0 0 0 0 0 0 0 0 0 0 0 0 0 0 0 0 0 0 0 0 0 0 -0 0 0 0
Wind_Speed_500mb
32 33 31 29 23 24 24 23 26 27 24 22 22 18 18 22 24 22 21 22 23 25 26 26 27 27 28 26 25 24 22 22 22 23 23 25 24 23 22 20 20 17 18
34 36 34 28 22 25 21 25 27 28 25 26 22 15 16 20 21 21 19 19 22 25 26 25 25 24 22 21 20 22 22 21 21 23 24 31 25 24 22 21 19 18 19
33 34 33 26 23 28 25 26 29 28 26 26 16 13 15 17 17 17 17 19 21 22 22 22 20 19 18 19 19 19 19 20 21 21 23 16 20 24 25 24 23 22 22
34 30 31 28 28 32 29 29 31 29 27 27 21 10 9 11 11 12 15 17 20 19 18 18 18 16 16 16 17 17 18 20 21 20 18 18 18 25 27 27 26 24 24
33 31 30 32 35 35 31 27 25 23 21 16 9 3 4 7 8 10 12 15 15 16 15 15 14 13 14 16 18 20 22 24 25 26 24 24 26 26 31 30 29 31 28
33 30 31 36 39 34 28 26 22 18 13 8 3 1 1 3 7 10 11 11 13 12 11 10 11 14 16 18 20 23 23 22 22 19 23 25 27 30 32 32 33 34 36
34 32 34 35 37 32 28 22 16 11 8 7 6 4 5 8 10 11 12 12 11 11 12 13 14 14 15 17 18 19 20 22 23 21 25 28 27 33 34 34 36 37 37
34 32 37 37 34 28 25 21 17 13 11 10 10 10 10 10 11 11 11 12 10 9 8 9 11 14 16 17 18 21 24 25 26 20 25 25 27 36 37 38 40 40 38
35 32 34 35 31 28 23 21 19 15 14 14 13 12 12 12 11 9 8 6 7 8 11 12 14 16 18 20 22 24 26 28 27 23 29 25 32 37 39 40 41 39 36
36 33 30 27 27 25 23 23 20 16 14 13 13 13 12 10 7 6 5 8 9 10 12 15 17 19 20 23 24 27 30 31 30 26 23 24 39 42 43 44 42 39 37
47 42 31 29 23 20 16 21 17 15 14 14 14 11 9 6 4 7 9 10 11 14 17 18 20 22 25 26 28 30 33 25 27 27 27 34 41 45 44 46 46 44 41
49 45 41 36 26 24 21 18 17 16 13 9 10 6 5 3 4 6 8 12 14 16 19 20 23 27 30 29 25 34 27 32 32 29 31 46 46 46 47 49 49 47 43
47 45 42 32 26 22 18 15 18 17 14 11 7 6 2 1 5 8 12 16 20 22 22 27 29 28 31 34 30 27 29 27 31 32 33 47 50 47 49 51 50 49 43
35 39 40 31 26 24 19 19 13 14 11 9 6 3 1 3 7 10 13 17 20 21 24 24 27 34 37 36 34 36 33 33 33 35 31 44 49 48 48 46 45 43 37
32 31 34 30 27 25 23 17 15 12 9 6 5 3 2 5 10 13 17 20 22 22 22 30 33 33 36 33 33 38 34 37 35 34 40 37 48 44 40 39 38 34 32
32 31 30 29 26 24 23 20 14 12 10 8 4 4 7 10 14 18 19 20 24 27 34 31 32 37 37 41 39 37 37 33 34 34 38 39 38 37 33 37 38 34 33
33 31 31 30 29 25 21 19 17 14 11 6 6 9 13 15 18 21 21 24 25 27 27 28 30 31 29 28 29 30 34 33 33 32 30 30 29 35 40 37 38 38 38
31 32 31 32 29 26 22 20 15 12 9 8 9 10 17 18 19 18 19 24 29 23 24 28 25 29 31 29 32 32 30 29 29 27 24 25 33 34 34 39 36 39 39
30 30 31 31 30 28 25 18 16 15 10 14 15 16 18 19 19 19 23 24 22 22 25 27 27 29 28 29 33 31 30 27 23 20 19 35 31 37 33 38 46 45 47
29 29 29 31 29 28 25 22 20 22 18 19 19 19 18 19 18 20 21 18 17 18 20 21 23 25 27 30 34 33 28 24 22 12 23 36 22 34 31 43 41 51 52
30 29 28 27 28 29 27 24 22 23 22 21 19 15 16 17 17 15 13 14 14 14 17 20 24 27 27 35 38 42 26 14 16 16 47 21 37 25 53 40 57 51 52
30 28 28 29 31 28 22 20 24 28 23 19 15 12 13 11 9 9 9 11 13 15 19 22 26 28 26 32 39 26 20 36 14 43 15 40 23 49 37 61 52 55 50
35 35 34 33 31 31 32 31 30 26 20 15 11 8 4 3 5 7 10 13 15 16 19 23 27 31 33 31 31 21 15 12 50 20 47 28 42 36 62 56 38 58 50
40 37 36 35 35 32 30 28 23 20 20 15 10 5 2 4 7 9 10 11 14 18 22 28 33 35 35 36 29 28 18 22 18 30 22 42 42 63 63 41 69 43 45
37 36 35 34 33 32 30 27 28 24 18 14 11 7 4 4 6 8 10 14 20 25 30 33 34 33 34 32 31 34 32 33 15 33 41 47 58 61 40 62 36 50 49
36 35 35 32 30 28 27 25 19 17 17 13 8 2 1 5 6 8 13 19 25 30 31 31 32 32 31 30 30 30 30 28 36 35 51 68 66 59 40 14 33 31 37
Wind_Direction_500mb
153 160 151 150 147 143 139 143 146 146 140 135 126 105 81 64 50 54 66 72 79 81 79 75 72 68 65 65 64 62 58 54 48 43 40 39 30 27 28 28 25 11 14
159 158 152 151 152 150 138 142 143 137 134 134 127 100 79 55 47 52 64 67 76 76 75 74 71 68 64 60 55 50 46 42 39 36 30 27 11 12 11 12 11 4 1
155 167 163 165 165 157 140 136 138 137 132 131 115 103 70 50 49 56 66 71 83 80 76 74 72 68 60 52 46 40 34 30 28 27 29 23 352 360 356 355 354 352 349
153 154 166 164 164 163 150 135 136 135 135 131 120 101 49 35 43 63 79 83 87 87 82 75 66 58 48 41 38 33 28 24 21 18 22 0 8 346 347 344 342 338 338
150 154 172 167 163 163 161 152 144 142 144 149 153 139 15 17 48 67 81 86 96 86 75 68 57 46 38 29 22 19 17 13 9 10 1 355 351 342 341 337 336 332 332
151 153 153 162 163 157 164 161 158 155 158 168 189 267 357 72 96 92 101 101 89 88 73 61 43 30 22 18 12 8 7 6 2 1 352 348 348 345 340 335 331 328 326
149 153 150 150 161 166 168 168 165 169 180 194 196 187 144 125 117 104 97 88 78 59 45 32 22 14 6 3 2 359 358 359 360 3 351 348 343 343 338 334 330 325 322
150 149 149 145 148 151 154 163 172 175 179 174 159 150 138 124 108 98 85 73 64 52 31 13 3 360 358 352 349 353 355 354 355 355 339 343 343 343 340 337 332 326 321
154 154 155 154 158 165 167 169 168 166 162 154 142 125 110 101 97 91 81 66 38 17 4 357 353 350 349 346 346 347 347 345 344 346 340 340 336 337 336 336 336 332 324
159 159 161 163 163 167 169 171 168 157 143 135 128 123 119 113 102 83 44 30 8 353 349 349 345 340 338 335 334 336 338 336 346 325 322 316 330 329 329 329 329 329 329
164 164 167 163 163 162 174 171 166 156 140 140 142 139 139 100 44 21 12 354 343 345 344 340 335 331 328 325 328 332 332 342 321 319 317 303 322 324 324 324 321 319 319
175 177 176 174 167 168 172 180 165 177 162 161 156 147 94 62 16 346 339 341 337 333 328 328 326 325 324 330 327 329 330 316 327 314 314 304 319 321 319 319 316 313 309
182 181 182 180 173 177 179 193 186 180 179 172 160 144 149 326 335 335 332 335 336 332 336 329 327 328 323 324 322 320 315 320 317 314 310 308 316 318 318 316 314 311 308
184 187 184 175 180 180 183 183 200 186 179 172 173 169 213 334 329 331 329 327 328 323 322 325 324 322 326 326 322 319 319 317 313 315 312 305 313 321 321 321 322 319 314
182 186 188 181 183 187 185 187 187 183 174 190 184 195 265 314 315 316 316 318 316 316 319 317 314 315 321 317 308 313 312 311 314 311 302 308 316 327 331 331 333 334 330
177 181 183 185 182 188 185 182 177 177 182 185 208 272 298 301 307 313 316 316 317 303 314 317 314 317 316 317 321 326 328 318 308 307 314 319 325 330 340 343 341 338 336
176 177 181 182 184 181 179 183 181 187 192 207 252 285 290 301 308 313 319 315 315 312 313 311 331 315 320 319 313 312 311 314 318 320 325 333 339 342 336 341 339 334 329
176 179 180 184 181 181 181 187 192 198 206 237 260 274 285 298 308 317 298 300 309 314 310 318 325 319 322 322 323 328 331 329 323 327 328 339 335 331 335 331 331 328 326
182 179 181 185 184 183 185 184 194 205 209 237 254 270 287 300 309 305 310 316 317 317 318 326 329 331 335 334 338 338 337 332 329 325 337 338 331 331 334 332 326 329 326
180 181 181 186 186 190 195 197 206 223 236 251 266 279 292 303 309 311 315 320 325 330 333 340 342 342 341 340 340 339 337 333 326 335 323 327 320 326 323 332 330 328 329
184 182 183 185 188 194 200 204 215 232 237 248 258 273 286 302 311 316 324 336 344 351 353 355 354 355 351 346 348 342 348 318 303 288 329 321 320 316 325 330 331 332 331
185 183 185 190 198 198 197 193 202 231 235 245 256 273 298 312 328 339 347 356 1 359 354 358 359 0 355 344 349 355 330 348 231 313 328 319 326 321 317 330 336 342 338
189 195 199 203 204 208 213 215 219 227 228 228 245 274 289 347 10 10 4 0 0 2 359 356 352 348 348 342 352 359 338 319 317 316 318 315 329 320 326 333 333 335 337
193 198 202 204 205 206 206 212 216 210 209 231 231 202 109 36 13 8 6 8 6 359 351 346 343 340 340 340 347 324 321 310 316 317 295 332 319 325 330 332 328 335 330
195 198 201 202 201 200 197 192 194 208 205 186 162 147 126 39 17 14 7 357 348 343 340 339 339 341 342 340 339 336 337 333 315 303 309 309 321 330 329 323 333 333 322
187 188 189 189 188 185 185 185 182 166 152 146 137 124 94 56 19 2 344 339 338 338 339 342 342 342 343 343 344 343 342 343 324 324 316 321 323 328 343 18 327 310 313
Wind_Speed_850mb
32 33 31 29 23 24 24 23 26 27 24 22 22 18 18 22 24 22 21 22 23 25 26 26 27 27 28 26 25 24 22 22 22 23 23 25 24 23 22 20 20 17 18
34 36 34 28 22 25 21 25 27 28 25 26 22 15 16 20 21 21 19 19 22 25 26 25 25 24 22 21 20 22 22 21 21 23 24 31 25 24 22 21 19 18 19
33 34 33 26 23 28 25 26 29 28 26 26 16 13 15 17 17 17 17 19 21 22 22 22 20 19 18 19 19 19 19 20 21 21 23 16 20 24 25 24 23 22 22
34 30 31 28 28 32 29 29 31 29 27 27 21 10 9 11 11 12 15 17 20 19 18 18 18 16 16 16 17 17 18 20 21 20 18 18 18 25 27 27 26 24 24
33 31 30 32 35 35 31 27 25 23 21 16 9 3 4 7 8 10 12 15 15 16 15 15 14 13 14 16 18 20 22 24 25 26 24 24 26 26 31 30 29 31 28
33 30 31 36 39 34 28 26 22 18 13 8 3 1 1 3 7 10 11 11 13 12 11 10 11 14 16 18 20 23 23 22 22 19 23 25 27 30 32 32 33 34 36
34 32 34 35 37 32 28 22 16 11 8 7 6 4 5 8 10 11 12 12 11 11 12 13 14 14 15 17 18 19 20 22 23 21 25 28 27 33 34 34 36 37 37
34 32 37 37 34 28 25 21 17 13 11 10 10 10 10 10 11 11 11 12 10 9 8 9 11 14 16 17 18 21 24 25 26 20 25 25 27 36 37 38 40 40 38
35 32 34 35 31 28 23 21 19 15 14 14 13 12 12 12 11 9 8 6 7 8 11 12 14 16 18 20 22 24 26 28 27 23 29 25 32 37 39 40 41 39 36
36 33 30 27 27 25 23 23 20 16 14 13 13 13 12 10 7 6 5 8 9 10 12 15 17 19 20 23 24 27 30 31 30 26 23 24 39 42 43 44 42 39 37
47 42 31 29 23 20 16 21 17 15 14 14 14 11 9 6 4 7 9 10 11 14 17 18 20 22 25 26 28 30 33 25 27 27 27 34 41 45 44 46 46 44 41
49 45 41 36 26 24 21 18 17 16 13 9 10 6 5 3 4 6 8 12 14 16 19 20 23 27 30 29 25 34 27 32 32 29 31 46 46 46 47 49 49 47 43
47 45 42 32 26 22 18 15 18 17 14 11 7 6 2 1 5 8 12 16 20 22 22 27 29 28 31 34 30 27 29 27 31 32 33 47 50 47 49 51 50 49 43
35 39 40 31 26 24 19 19 13 14 11 9 6 3 1 3 7 10 13 17 20 21 24 24 27 34 37 36 34 36 33 33 33 35 31 44 49 48 48 46 45 43 37
32 31 34 30 27 25 23 17 15 12 9 6 5 3 2 5 10 13 17 20 22 22 22 30 33 33 36 33 33 38 34 37 35 34 40 37 48 44 40 39 38 34 32
32 31 30 29 26 24 23 20 14 12 10 8 4 4 7 10 14 18 19 20 24 27 34 31 32 37 37 41 39 37 37 33 34 34 38 39 38 37 33 37 38 34 33
33 31 31 30 29 25 21 19 17 14 11 6 6 9 13 15 18 21 21 24 25 27 27 28 30 31 29 28 29 30 34 33 33 32 30 30 29 35 40 37 38 38 38
31 32 31 32 29 26 22 20 15 12 9 8 9 10 17 18 19 18 19 24 29 23 24 28 25 29 31 29 32 32 30 29 29 27 24 25 33 34 34 39 36 39 39
30 30 31 31 30 28 25 18 16 15 10 14 15 16 18 19 19 19 23 24 22 22 25 27 27 29 28 29 33 31 30 27 23 20 19 35 31 37 33 38 46 45 47
29 29 29 31 29 28 25 22 20 22 18 19 19 19 18 19 18 20 21 18 17 18 20 21 23 25 27 30 34 33 28 24 22 12 23 36 22 34 31 43 41 51 52
30 29 28 27 28 29 27 24 22 23 22 21 19 15 16 17 17 15 13 14 14 14 17 20 24 27 27 35 38 42 26 14 16 16 47 21 37 25 53 40 57 51 52
30 28 28 29 31 28 22 20 24 28 23 19 15 12 13 11 9 9 9 11 13 15 19 22 26 28 26 32 39 26 20 36 14 43 15 40 23 49 37 61 52 55 50
35 35 34 33 31 31 32 31 30 26 20 15 11 8 4 3 5 7 10 13 15 16 19 23 27 31 33 31 31 21 15 12 50 20 47 28 42 36 62 56 38 58 50
40 37 36 35 35 32 30 28 23 20 20 15 10 5 2 4 7 9 10 11 14 18 22 28 33 35 35 36 29 28 18 22 18 30 22 42 42 63 63 41 69 43 45
37 36 35 34 33 32 30 27 28 24 18 14 11 7 4 4 6 8 10 14 20 25 30 33 34 33 34 32 31 34 32 33 15 33 41 47 58 61 40 62 36 50 49
36 35 35 32 30 28 27 25 19 17 17 13 8 2 1 5 6 8 13 19 25 30 31 31 32 32 31 30 30 30 30 28 36 35 51 68 66 59 40 14 33 31 37
Wind_Direction_850mb
153 160 151 150 147 143 139 143 146 146 140 135 126 105 81 64 50 54 66 72 79 81 79 75 72 68 65 65 64 62 58 54 48 43 40 39 30 27 28 28 25 11 14
159 158 152 151 152 150 138 142 143 137 134 134 127 100 79 55 47 52 64 67 76 76 75 74 71 68 64 60 55 50 46 42 39 36 30 27 11 12 11 12 11 4 1
155 167 163 165 165 157 140 136 138 137 132 131 115 103 70 50 49 56 66 71 83 80 76 74 72 68 60 52 46 40 34 30 28 27 29 23 352 360 356 355 354 352 349
153 154 166 164 164 163 150 135 136 135 135 131 120 101 49 35 43 63 79 83 87 87 82 75 66 58 48 41 38 33 28 24 21 18 22 0 8 346 347 344 342 338 338
150 154 172 167 163 163 161 152 144 142 144 149 153 139 15 17 48 67 81 86 96 86 75 68 57 46 38 29 22 19 17 13 9 10 1 355 351 342 341 337 336 332 332
151 153 153 162 163 157 164 161 158 155 158 168 189 267 357 72 96 92 101 101 89 88 73 61 43 30 22 18 12 8 7 6 2 1 352 348 348 345 340 335 331 328 326
149 153 150 150 161 166 168 168 165 169 180 194 196 187 144 125 117 104 97 88 78 59 45 32 22 14 6 3 2 359 358 359 360 3 351 348 343 343 338 334 330 325 322
150 149 149 145 148 151 154 163 172 175 179 174 159 150 138 124 108 98 85 73 64 52 31 13 3 360 358 352 349 353 355 354 355 355 339 343 343 343 340 337 332 326 321
154 154 155 154 158 165 167 169 168 166 162 154 142 125 110 101 97 91 81 66 38 17 4 357 353 350 349 346 346 347 347 345 344 346 340 340 336 337 336 336 336 332 324
159 159 161 163 163 167 169 171 168 157 143 135 128 123 119 113 102 83 44 30 8 353 349 349 345 340 338 335 334 336 338 336 346 325 322 316 330 329 329 329 329 329 329
164 164 167 163 163 162 174 171 166 156 140 140 142 139 139 100 44 21 12 354 343 345 344 340 335 331 328 325 328 332 332 342 321 319 317 303 322 324 324 324 321 319 319
175 177 176 174 167 168 172 180 165 177 162 161 156 147 94 62 16 346 339 341 337 333 328 328 326 325 324 330 327 329 330 316 327 314 314 304 319 321 319 319 316 313 309
182 181 182 180 173 177 179 193 186 180 179 172 160 144 149 326 335 335 332 335 336 332 336 329 327 328 323 324 322 320 315 320 317 314 310 308 316 318 318 316 314 311 308
184 187 184 175 180 180 183 183 200 186 179 172 173 169 213 334 329 331 329 327 328 323 322 325 324 322 326 326 322 319 319 317 313 315 312 305 313 321 321 321 322 319 314
182 186 188 181 183 187 185 187 187 183 174 190 184 195 265 314 315 316 316 318 316 316 319 317 314 315 321 317 308 313 312 311 314 311 302 308 316 327 331 331 333 334 330
177 181 183 185 182 188 185 182 177 177 182 185 208 272 298 301 307 313 316 316 317 303 314 317 314 317 316 317 321 326 328 318 308 307 314 319 325 330 340 343 341 338 336
176 177 181 182 184 181 179 183 181 187 192 207 252 285 290 301 308 313 319 315 315 312 313 311 331 315 320 319 313 312 311 314 318 320 325 333 339 342 336 341 339 334 329
176 179 180 184 181 181 181 187 192 198 206 237 260 274 285 298 308 317 298 300 309 314 310 318 325 319 322 322 323 328 331 329 323 327 328 339 335 331 335 331 331 328 326
182 179 181 185 184 183 185 184 194 205 209 237 254 270 287 300 309 305 310 316 317 317 318 326 329 331 335 334 338 338 337 332 329 325 337 338 331 331 334 332 326 329 326
180 181 181 186 186 190 195 197 206 223 236 251 266 279 292 303 309 311 315 320 325 330 333 340 342 342 341 340 340 339 337 333 326 335 323 327 320 326 323 332 330 328 329
184 182 183 185 188 194 200 204 215 232 237 248 258 273 286 302 311 316 324 336 344 351 353 355 354 355 351 346 348 342 348 318 303 288 329 321 320 316 325 330 331 332 331
185 183 185 190 198 198 197 193 202 231 235 245 256 273 298 312 328 339 347 356 1 359 354 358 359 0 355 344 349 355 330 348 231 313 328 319 326 321 317 330 336 342 338
189 195 199 203 204 208 213 215 219 227 228 228 245 274 289 347 10 10 4 0 0 2 359 356 352 348 348 342 352 359 338 319 317 316 318 315 329 320 326 333 333 335 337
193 198 202 204 205 206 206 212 216 210 209 231 231 202 109 36 13 8 6 8 6 359 351 346 343 340 340 340 347 324 321 310 316 317 295 332 319 325 330 332 328 335 330
195 198 201 202 201 200 197 192 194 208 205 186 162 147 126 39 17 14 7 357 348 343 340 339 339 341 342 340 339 336 337 333 315 303 309 309 321 330 329 323 333 333 322
187 188 189 189 188 185 185 185 182 166 152 146 137 124 94 56 19 2 344 339 338 338 339 342 342 342 343 343 344 343 342 343 324 324 316 321 323 328 343 18 327 310 313